Home   Weather   Shrewsbury   Past weeks
Flag for United Kingdom

Past Weather in Shrewsbury, England, United Kingdom — Yesterday and Last 2 Weeks

Now
52 °F

Overcast.


Feels Like: 50 °F
Forecast: 74 / 50 °F
Wind: 6 mph from East

Location: Shawbury

Current Time: Jun 27, 2019 at 5:18:32 am

Latest Report: Jun 27, 2019 at 3:50 am


Visibility: N/A

Pressure: 30.45 "Hg

Humidity: 88%

Dew Point: 48 °F

Location of ShrewsburyLocation

Past Weather in Shrewsbury — Graph

°F

Shrewsbury Temperature Yesterday

Maximum temperature yesterday: 63 °F (at 3:20 pm)
Minimum temperature yesterday: 55 °F (at 3:50 am)
Average temperature yesterday: 59 °F

High & Low Weather Summary for the Past Weeks

 TemperatureHumidityPressure
High72 °F (Jun 22, 3:50 pm)100% (Jun 12, 3:50 am)30.45 "Hg (Jun 12, 3:50 am)
Low43 °F (Jun 22, 3:50 am)36% (Jun 22, 4:50 pm)29.59 "Hg (Jun 13, 3:50 am)
Average58 °F82%29.95 "Hg
* Reported Jun 12 3:50 am — Jun 27 3:50 am, Shrewsbury. Weather by CustomWeather, © 2019

Note: Actual official high and low records may vary slightly from our data, if they occured in-between our weather recording intervals... More about our weather records

Advertising

Shrewsbury Weather History for the Previous 24 Hours

Scroll right to see more
 ConditionsComfort  
Time TempWeatherWind HumidityBarometerVisibility
3:50 am
Thu, Jun 27
52 °FOvercast.6 mph88%30.45 "HgN/A
2:50 am54 °FLow clouds.9 mph88%30.45 "HgN/A
1:50 am54 °FOvercast.8 mph88%30.45 "HgN/A
1:20 am54 °FPassing clouds.10 mph88%30.45 "HgN/A
12:50 am55 °FPassing clouds.7 mph82%30.45 "HgN/A
12:25 am55 °FPassing clouds.6 mph82%30.45 "HgN/A
11:50 pm
Wed, Jun 26
55 °FPassing clouds.10 mph82%30.45 "HgN/A
11:20 pm55 °FPassing clouds.9 mph88%30.45 "HgN/A
10:50 pm55 °FPassing clouds.12 mph82%30.45 "HgN/A
10:20 pm57 °FPassing clouds.9 mph82%30.45 "HgN/A
8:50 pm59 °FPartly sunny.8 mph82%30.42 "HgN/A
7:50 pm59 °FMostly cloudy.10 mph82%30.42 "HgN/A
6:50 pm59 °FOvercast.13 mph82%30.42 "HgN/A
5:50 pm61 °FPartly sunny.12 mph83%30.42 "HgN/A
4:50 pm63 °FOvercast.12 mph77%30.42 "HgN/A
3:50 pm63 °FPartly sunny.9 mph77%30.42 "HgN/A
3:20 pm63 °FPartly sunny.9 mph77%30.42 "HgN/A
2:50 pm61 °FPartly sunny.9 mph83%30.42 "HgN/A
2:20 pm61 °FPartly sunny.9 mph83%30.42 "HgN/A
1:50 pm61 °FPartly sunny.10 mph83%30.42 "HgN/A
1:22 pm61 °FPartly sunny.9 mph83%30.42 "HgN/A
12:50 pm61 °FPartly sunny.8 mph83%30.42 "HgN/A
12:20 pm59 °FMostly cloudy.9 mph82%30.42 "HgN/A
11:50 am61 °FMostly cloudy.9 mph83%30.42 "HgN/A
11:28 am59 °FMore clouds than sun.7 mph82%30.42 "HgN/A
10:50 am59 °FMore clouds than sun.8 mph82%30.42 "HgN/A
10:23 am59 °FMore clouds than sun.12 mph82%30.39 "HgN/A
9:20 am57 °FDrizzle. More clouds than sun.9 mph88%30.39 "Hg5 mi
8:50 am57 °FMostly cloudy.7 mph88%30.39 "HgN/A
7:50 am55 °FFog.5 mph94%30.36 "Hg4 mi
6:50 am55 °FDrizzle. Mostly cloudy.6 mph94%30.36 "HgN/A
5:50 am55 °FFog.3 mph100%30.33 "Hg4 mi
Weather by CustomWeather, © 2019

See weather overview